Battle Creek, MI

12:38 AM EST on November 23, 2017 (GMT -0500)
Kellogg

Weather History for KBTL - February, 2014

Change the Weather History Date:

Friday, February 28, 2014

  Actual Average Record
Temperature  
Mean Temperature 5 °F 30 °F  
Max Temperature 20 °F 40 °F 59 °F (2016)
Min Temperature -10 °F 20 °F -10 °F (2014)
Degree Days  
Heating Degree Days 60 35  
Month to date heating degree days 1336 1083  
Since 1 July heating degree days 5454 4965  
Cooling Degree Days 0 0  
Month to date cooling degree days 0 0  
Year to date cooling degree days 0 0  
Moisture  
Dew Point -5 °F    
Average Humidity 61    
Maximum Humidity 79    
Minimum Humidity 43    
Precipitation  
Precipitation 0.00 in 0.06 in 0.83 in (2017)
Month to date precipitation 0.78 1.34  
Year to date precipitation 1.53 3.00  
Sea Level Pressure  
Sea Level Pressure 30.22 in    
Wind  
Wind Speed 8 mph (SSE)    
Max Wind Speed 20 mph    
Max Gust Speed 24 mph    
Visibility 10 miles    
Events      
T = Trace of Precipitation, MM = Missing Value Source: NWS Daily Summary

Daily Weather History Graph

Daily Weather History Graph

Search for Another Location

Airport or City:

Trip Planner

Search our weather history database for the weather conditions in past years. The results will help you decide how hot, cold, wet, or windy it might be!

Date:

Astronomy

Feb. 28, 2014 Rise Set
Actual Time 7:17 AM EST 6:29 PM EST
Civil Twilight 6:49 AM EST 6:57 PM EST
Nautical Twilight 6:17 AM EST 7:30 PM EST
Astronomical Twilight 5:44 AM EST 8:03 PM EST
Moon 6:32 AM EST (2/28) 6:06 PM EST (2/28)
Length of Visible Light 12h 08m
Length of Day
11h 11m
Waning Crescent, 1% of the Moon is Illuminated
Feb 28
Waning Crescent
Mar 1
New
Mar 8
First Quarter
Mar 16
Full
Mar 23
Last Quarter

Hourly Weather History & Observations

Time (EST) Temp. Windchill Dew Point Humidity Pressure Visibility Wind Dir Wind Speed Gust Speed Precip Events Conditions
12:53 AM -7.1 °F - -13.0 °F 75% 30.25 in 10.0 mi Calm Calm - N/A   Clear
1:53 AM -6.0 °F - -11.9 °F 75% 30.26 in 10.0 mi Calm Calm - N/A   Clear
2:53 AM -8.0 °F - -13.0 °F 79% 30.27 in 10.0 mi Calm Calm - N/A   Clear
3:53 AM -9.0 °F - -15.0 °F 75% 30.27 in 10.0 mi Calm Calm - N/A   Clear
4:53 AM -9.0 °F - -16.1 °F 71% 30.28 in 10.0 mi Calm Calm - N/A   Clear
5:53 AM -9.0 °F -18.2 °F -15.0 °F 75% 30.29 in 10.0 mi SE 3.5 mph - N/A   Clear
6:53 AM -2.9 °F -15.0 °F -11.9 °F 65% 30.30 in 10.0 mi SE 5.8 mph - N/A   Clear
7:53 AM -2.0 °F -13.9 °F -9.9 °F 69% 30.30 in 10.0 mi SE 5.8 mph - N/A   Clear
8:53 AM 1.9 °F -9.2 °F -9.0 °F 60% 30.32 in 10.0 mi SE 5.8 mph - N/A   Clear
9:53 AM 6.1 °F -10.2 °F -9.9 °F 48% 30.32 in 10.0 mi SSE 12.7 mph - N/A   Clear
10:53 AM 9.0 °F -8.5 °F -7.1 °F 48% 30.31 in 10.0 mi South 16.1 mph - N/A   Clear
11:53 AM 10.9 °F -4.7 °F -6.0 °F 47% 30.30 in 10.0 mi South 13.8 mph - N/A   Clear
12:53 PM 12.9 °F 0.7 °F -4.0 °F 47% 30.29 in 10.0 mi South 9.2 mph - N/A   Clear
1:53 PM 15.1 °F -0.1 °F -2.9 °F 45% 30.23 in 10.0 mi South 15.0 mph - N/A   Mostly Cloudy
2:53 PM 16.0 °F 2.9 °F -0.9 °F 47% 30.22 in 10.0 mi South 11.5 mph - N/A   Partly Cloudy
3:53 PM 17.1 °F 3.6 °F -2.0 °F 43% 30.18 in 10.0 mi South 12.7 mph 20.7 mph N/A   Partly Cloudy
4:53 PM 18.0 °F 4.2 °F 1.0 °F 48% 30.16 in 10.0 mi South 13.8 mph - N/A   Clear
5:53 PM 18.0 °F 5.4 °F 1.0 °F 48% 30.14 in 10.0 mi SSE 11.5 mph - N/A   Clear
6:53 PM 18.0 °F 6.9 °F 1.9 °F 50% 30.12 in 10.0 mi SE 9.2 mph - N/A   Clear
7:53 PM 18.0 °F 8.7 °F 3.0 °F 52% 30.12 in 10.0 mi SE 6.9 mph - N/A   Partly Cloudy
8:53 PM 19.0 °F 9.0 °F 3.9 °F 52% 30.11 in 10.0 mi SSE 8.1 mph - N/A   Clear
9:53 PM 19.0 °F 9.0 °F 5.0 °F 54% 30.10 in 10.0 mi SSE 8.1 mph - N/A   Clear
10:53 PM 19.9 °F 9.3 °F 6.1 °F 55% 30.08 in 10.0 mi SSE 9.2 mph - N/A   Clear
11:53 PM 19.9 °F 12.1 °F 7.0 °F 57% 30.07 in 10.0 mi SSE 5.8 mph - N/A   Clear